Flag for U.S.A. Weather past 2 weeks in Lexington-Fayette, Kentucky, U.S.A.

Now
42 °F

Clear.


Feels Like: 37 °F
Forecast: 41 / 63 °F
Wind: 8 mph from Southwest

Location: Blue Grass Airport

Current Time: Apr 21, 2015 at 5:32:49 AM

Latest Report: Apr 21, 2015 at 4:54 AM


Visibility: 10 mi

Pressure: 29.86 "Hg

Humidity: 76%

Dew point: 35 °F

Location of Lexington-FayetteLocation

Historic Weather in Lexington-Fayette — Graph

°F

Lexington-Fayette temperature yesterday

Maximum temperature yesterday: 62 °F (at 11:54 AM)
Minimum temperature yesterday: 50 °F (at 11:54 PM)
Average temperature yesterday: 57 °F

Past Weeks' High & Low Weather Summary

 TemperatureHumidityPressure
High82 °F (Apr 9, 3:54 PM)100% (Apr 8, 1:03 AM)30.29 "Hg (Apr 8, 1:03 AM)
Low41 °F (Apr 11, 6:54 AM)26% (Apr 12, 4:54 PM)29.49 "Hg (Apr 19, 7:54 PM)
Average61 °F72%30.00 "Hg
* Reported Apr 6 3:54 AM — Apr 21 3:54 AM, Lexington-Fayette, Weather by CustomWeather, © 2015

Note: Actual official high and low records may vary slightly from our data, if they occured in-between our weather recording intervals... More about our weather records

Advertising

Lexington-Fayette weather history for previous 24 hours

 ConditionsComfort  
Time TempWeatherWind HumidityBarometerVisibility
3:54 AM
Tue, Apr 21
43 °FPassing clouds.7 mph74%29.85 "Hg10 mi
2:54 AM45 °FPassing clouds.7 mph68%29.85 "Hg10 mi
1:54 AM47 °FPassing clouds.7 mph64%29.85 "Hg10 mi
12:54 AM49 °FOvercast.8 mph57%29.85 "Hg10 mi
11:54 PM
Mon, Apr 20
50 °FPassing clouds.13 mph54%29.82 "Hg10 mi
10:54 PM51 °FOvercast.8 mph61%29.80 "Hg10 mi
9:54 PM51 °FPassing clouds.12 mph59%29.78 "Hg10 mi
8:54 PM52 °FSunny.8 mph59%29.73 "Hg10 mi
7:54 PM56 °FMostly cloudy.14 mph58%29.70 "Hg10 mi
6:54 PM57 °FMostly cloudy.13 mph62%29.67 "Hg10 mi
5:54 PM56 °FMore clouds than sun.14 mph67%29.66 "Hg10 mi
4:54 PM56 °FLight rain. Mostly cloudy.20 mph75%29.64 "Hg10 mi
4:01 PM58 °FCloudy.9 mph75%29.64 "Hg10 mi
2:54 PM58 °FLight rain. Mostly cloudy.12 mph78%29.62 "Hg10 mi
2:04 PM57 °FLight rain. Mostly cloudy.12 mph83%29.63 "Hg8 mi
1:54 PM59 °FLight rain. Cloudy.15 mph78%29.60 "Hg9 mi
12:54 PM60 °FPartly sunny.16 mph80%29.58 "Hg10 mi
11:54 AM62 °FLight rain. Broken clouds.17 mph80%29.57 "Hg10 mi
10:54 AM61 °FScattered clouds.14 mph83%29.55 "Hg10 mi
9:54 AM58 °FLight rain. Mostly cloudy.14 mph87%29.54 "Hg10 mi
8:54 AM57 °FLight rain. Mostly cloudy.12 mph93%29.53 "Hg10 mi
7:54 AM57 °FOvercast.15 mph87%29.51 "Hg10 mi
6:54 AM57 °FMostly cloudy.13 mph87%29.50 "Hg10 mi
5:54 AM57 °FLight rain. Overcast.10 mph90%29.49 "Hg10 mi
Weather by CustomWeather, © 2015

See weather overviewHow to use our weather pages